Regional Weather Roundup
Issued by NWS Albany, NY

Current Version | Previous Version | Graphics & Text | Print | Product List | Glossary Off
Versions: 1 2 3 4 5 6 7 8 9 10 11 12 13 14 15 16 17 18 19 20 21 22 23 24 25 26 27 28

000
ASUS41 KALY 270410
RWRALY

NEW YORK STATE HOURLY WEATHER ROUNDUP
NATIONAL WEATHER SERVICE ALBANY NY
1200 AM EDT THU JUL 27 2017

NOTE: "FAIR" INDICATES FEW OR NO CLOUDS BELOW 12,000 FEET WITH NO
SIGNIFICANT WEATHER AND/OR NO OBSTRUCTIONS TO VISIBILITY.

NYZ032-033-038>043-046>054-057>066-NYZ062>081-082-084-270500-
EAST


CITY           SKY/WX    TMP DP  RH WIND       PRES   REMARKS
ALBANY         CLOUDY    68  60  75 S7        30.08S
GLENS FALLS    CLOUDY    64  61  90 S3        30.06S
POUGHKEEPSIE   CLOUDY    64  56  75 SE3       30.11F
NEWBURGH       CLEAR     64  59  82 CALM      30.15S
MONTGOMERY     CLOUDY    61  58  90 CALM      30.12F
WHITE PLAINS   PTCLDY    63  57  81 CALM      30.14S
ISLIP          PTCLDY    65  58  78 S5        30.13F
NEW YORK CITY  MOCLDY    70  58  65 S6        30.13S
CENTRAL PARK   PTCLDY    67  56  67 CALM      30.16F
$$

NYZ005>009-017-018-044>046-055-056-270500-
CENTRAL


CITY           SKY/WX    TMP DP  RH WIND       PRES   REMARKS
FULTON         LGT RAIN  68  61  78 S3        30.00F
SYRACUSE       CLOUDY    70  60  70 S8        29.98F
ROME           CLOUDY    65  62  90 SE6       30.02F
ELMIRA         CLEAR     63  62  97 CALM      30.06F
BINGHAMTON     CLOUDY    64  59  83 S6        30.10F
$$

NYZ026>034-041>043-087-270500-
NORTH


CITY           SKY/WX    TMP DP  RH WIND       PRES   REMARKS
WATERTOWN      LGT RAIN  66  64  93 NW6       29.99R
FORT DRUM      NOT AVBL
OGDENSBURG     FAIR      65  63  93 CALM      29.98S
MASSENA        CLOUDY    65  64  97 CALM      29.98F
SARANAC LAKE   CLOUDY    62  59  90 SW7       30.03F
PLATTSBURGH    CLOUDY    65  62  90 CALM      29.99F
$$

NYZ001>004-010>016-019>021-085-270500-
WEST


CITY           SKY/WX    TMP DP  RH WIND       PRES   REMARKS
NIAGARA FALLS  PTCLDY    71  63  75 SW8       30.00F
BUFFALO        CLOUDY    68  60  75 SW7       30.01F
DUNKIRK        CLOUDY    68  61  78 S7        30.02F
JAMESTOWN      CLOUDY    61  57  88 S5        30.07F
WELLSVILLE     CLOUDY    66  58  75 S7        30.11F
ROCHESTER      CLOUDY    67  63  87 SW5       30.02S
PENN YAN       CLOUDY    70  60  70 SW8       30.03F
$$

             KEY
       WCI = WIND CHILL INDEX
       VSB = VISIBILITY
       HX  = HEAT INDEX
$$




USA.gov is the U.S. government's official web portal to all federal, state and local government web resources and services.